Regional Weather Roundup
Issued by NWS State College, PA

Home | Current Version | Previous Version | Text Only | Print | Product List | Glossary Off
Versions: 1 2 3 4 5 6 7 8 9 10 11 12 13 14 15 16 17 18 19 20 21 22 23 24 25 26 27 28 29 30 31 32 33 34 35 36 37 38 39 40 41 42 43 44 45 46 47 48 49 50

000
ASUS41 KCTP 221010
RWRCTP

REGIONAL WEATHER ROUNDUP
NATIONAL WEATHER SERVICE STATE COLLEGE PA
600 AM EDT FRI AUG 22 2014

Note: "fair" indicates few or no clouds below 12,000 feet with no
significant weather and/or obstructions to visibility.

* = STATION THAT DOES NOT REPORT PRECIPITATION /E.G. RAIN...SNOW...ETC/
    THUNDER OR FOG.

PAZ002>004-007>009-013>016-020>023-029>032-221100-
WESTERN PENNSYLVANIA

CITY           SKY/WX    TMP DP  RH WIND       PRES   REMARKS
ERIE           MOCLDY    71  67  87 CALM      29.96R
MEADVILLE      CLOUDY    68  66  93 S5        30.00R FOG
FRANKLIN*      CLOUDY    68  64  88 CALM      30.01S
NEW CASTLE     NOT AVBL
BEAVER COUNTY  NOT AVBL
BUTLER*        CLOUDY    68  64  88 S5        30.03R
PITTSBURGH INT FOG       68  67  96 S3        30.00R VSB 1
PITTSBURGH     CLOUDY    68  66  93 S5        30.00S FOG
INDIANA*       CLOUDY    70  68  94 SW5       30.05R FOG
LATROBE        CLOUDY    70  70 100 SW5       30.02R
WASHINGTON CO* CLOUDY    66  66 100 CALM      30.01S
$$

PAZ004>006-010>012-017>019-024>028-033>037-041-042-045-046-049>053-221100-
CENTRAL PENNSYLVANIA

CITY           SKY/WX    TMP DP  RH WIND       PRES   REMARKS
BRADFORD       CLOUDY    67  64  90 CALM      30.02S FOG
DUBOIS         CLOUDY    67  66  97 CALM      30.02R FOG
CLEARFIELD     FOG       67  67 100 CALM      30.02R VSB 3/4
JOHNSTOWN      CLOUDY    66  64  93 CALM      30.04S
ALTOONA        PTCLDY    65  64  97 CALM      30.02S FOG
STATE COLLEGE  CLOUDY    64  64 100 CALM      30.00R FOG
WILLIAMSPORT   FOG       65  63  93 N3        29.97F VSB 1/2
SELINSGROVE    CLOUDY    69  67  93 CALM      29.99R FOG
FT INDIANTOWN  CLOUDY    68  68 100 NE2       30.00R
CAPITAL CITY   CLOUDY    67  66  97 CALM      29.99R FOG
HARRISBURG     CLOUDY    68  65  90 CALM      29.98R FOG
YORK           FOG       62  62 100 CALM      29.99R VSB 1/4
$$

PAZ038>040-043-044-047-048-054-055-060>062-067>071-221100-
EASTERN PENNSYLVANIA

CITY           SKY/WX    TMP DP  RH WIND       PRES   REMARKS
SCRANTON       CLOUDY    67  63  87 SE5       30.00S
MOUNT POCONO   FOG       62  61  96 E5        30.04S VSB<1/4
ALLENTOWN      CLOUDY    67  64  90 NE5       30.00S
QUAKERTOWN*    CLOUDY    66  64  94 MISG      30.01S
READING        CLOUDY    69  66  90 NE3       29.98S
LANCASTER      CLOUDY    68  66  93 E5        29.98F
COATESVILLE    MOSUNNY   66  66 100 CALM      29.99S
POTTSTOWN      CLOUDY    67  65  93 N5        30.00S
BLUE BELL      CLOUDY    68  66  94 CALM      29.98S
DOYLESTOWN     CLOUDY    65  65 100 CALM      29.99S
WILLOW GROVE   NOT AVBL
NORTH PHILA    MOCLDY    67  63  87 E6        30.01R
PHILADELPHIA   MOCLDY    68  65  90 E7        29.99R
$$



USA.gov is the U.S. government's official web portal to all federal, state and local government web resources and services.